Regional Weather Roundup
Issued by NWS

Home | Current Version | Previous Version | Graphics & Text | Print | Product List | Glossary On
Versions: 1 2 3 4 5 6 7 8 9 10 11 12 13 14 15 16 17 18 19 20 21 22 23 24 25 26 27
000
ASUS45 KCYS 270310
RWRWY

WYOMING REGIONAL WEATHER ROUNDUP
NATIONAL WEATHER SERVICE CHEYENNE WY
900 PM MDT FRI AUG 26 2016

NOTE:  "FAIR" INDICATES FEW OR NO CLOUDS BELOW 12,000 FEET
WITH NO SIGNIFICANT WEATHER AND/OR OBSTRUCTIONS TO VISIBILITY.

WYZ001-270400-
YELLOWSTONE NATIONAL PARK

CITY           SKY/WX    TMP DP  RH WIND       PRES   REMARKS
LK YELLOWSTONE   N/A     47  34  60 CALM      30.19R
W YELLOWSTONE  NOT AVBL

$$
WYZ002>013-054>058-071-098>099-270400-
NORTHERN WYOMING

CITY           SKY/WX    TMP DP  RH WIND       PRES   REMARKS
JACKSON        FAIR      54  19  26 CALM      30.10R
CODY           FAIR      55  43  62 S3        30.05S
GREYBULL       FAIR      64  38  38 CALM      29.98R
WORLAND        FAIR      60  40  47 S6        30.00R
SHERIDAN       FAIR      52  44  74 S5        30.03S
BUFFALO        FAIR      56  40  55 NW8       30.09R
GILLETTE       MOCLDY    54  47  77 W3        30.06R
HULETT         FAIR      54  48  82 SE7       30.05S
NEWCASTLE      FAIR      59  50  72 E6        30.05R

$$
WYZ014>020-022>026-101>103-270400-
CENTRAL WYOMING

CITY           SKY/WX    TMP DP  RH WIND       PRES   REMARKS
BIG PINEY      MOCLDY    55  33  43 E3        30.15R
PINEDALE       FAIR      54  30  40 CALM      30.17R
DUBOIS         FAIR      48  32  53 CALM      30.14R
LANDER         FAIR      59  42  53 W7        30.04R
RIVERTON       FAIR      59  42  53 E6        30.06R
CASPER         FAIR      54  48  80 SE8       30.07F
DOUGLAS        LGT RAIN  60  45  57 W21G33    30.12R

$$
WYZ021-027>030-104>119-270400-
SOUTHERN WYOMING

CITY           SKY/WX    TMP DP  RH WIND       PRES   REMARKS
EVANSTON       FAIR      57  17  21 W13       30.16R
FORT BRIDGER   FAIR      59  16  19 SW9       30.17R
ROCK SPRINGS   FAIR      58  35  42 SE10      30.14R
DIXON          FAIR      56  39  52 SE3       30.21R
RAWLINS        FAIR      56  36  47 NW5       30.18R
SARATOGA       FAIR      59  34  38 S12G17    30.21R
LARAMIE        FAIR      59  33  37 SW16      30.18R
CHEYENNE       FAIR      57  50  77 CALM      30.16R
TORRINGTON     FAIR      58  54  86 SE5       30.05R
PINE BLUFFS    FAIR      55  55 100 S8        30.11R

$$




USA.gov is the U.S. government's official web portal to all federal, state and local government web resources and services.